Weather History for KSEP - April, 2013

Change the Weather History Date:

Wednesday, April 17, 2013

  Actual Average Record
Temperature  
Mean Temperature 76 °F -  
Max Temperature 82 °F 77 °F 100 °F (1925)
Min Temperature 69 °F 52 °F 34 °F (1947)
Cooling Degree Days 10    
Growing Degree Days 26 (Base 50)    
Moisture  
Dew Point 65 °F    
Average Humidity 72    
Maximum Humidity 94    
Minimum Humidity 51    
Precipitation  
Precipitation 0.00 in - - ()
Sea Level Pressure  
Sea Level Pressure 29.78 in    
Wind  
Wind Speed 16 mph (SSE)    
Max Wind Speed 22 mph    
Max Gust Speed 36 mph    
Visibility 8 miles    
Events      
Averages and records for this station are not official NWS values.
T = Trace of Precipitation, MM = Missing Value Source: NWS Daily Summary

Daily Weather History Graph

Daily Weather History Graph

Search for Another Location

Airport or City:

Trip Planner

Search our weather history database for the weather conditions in past years. The results will help you decide how hot, cold, wet, or windy it might be!

Date:

Astronomy

Apr. 17, 2013 Rise Set
Actual Time 7:01 AM CDT 8:03 PM CDT
Civil Twilight 6:35 AM CDT 8:29 PM CDT
Nautical Twilight 6:05 AM CDT 8:59 PM CDT
Astronomical Twilight 5:34 AM CDT 9:30 PM CDT
Moon 12:22 PM CDT (4/17) 1:35 AM CDT (4/17)
Length of Visible Light 13h 53m
Length of Day
13h 02m
Waxing Crescent, 42% of the Moon is Illuminated
Apr 17
Waxing Crescent
Apr 18
First Quarter
Apr 25
Full
May 2
Last Quarter
May 9
New

Hourly Weather History & Observations

Time (CDT) Temp. Heat Index Dew Point Humidity Pressure Visibility Wind Dir Wind Speed Gust Speed Precip Events Conditions
12:15 AM 71.6 °F - 64.4 °F 78% 29.89 in 7.0 mi SSE 12.7 mph 19.6 mph N/A   Clear
12:35 AM 71.6 °F - 64.4 °F 78% 29.89 in 7.0 mi SSE 12.7 mph 24.2 mph N/A   Scattered Clouds
12:55 AM 71.6 °F - 64.4 °F 78% 29.89 in 7.0 mi SSE 16.1 mph 25.3 mph N/A   Clear
1:15 AM 71.6 °F - 64.4 °F 78% 29.90 in 7.0 mi SSE 12.7 mph 23.0 mph N/A   Clear
1:35 AM 71.6 °F - 64.4 °F 78% 29.90 in 7.0 mi SSE 15.0 mph 24.2 mph N/A   Scattered Clouds
1:55 AM 71.6 °F - 64.4 °F 78% 29.90 in 7.0 mi SSE 17.3 mph 24.2 mph N/A   Scattered Clouds
2:15 AM 71.6 °F - 64.4 °F 78% 29.88 in 7.0 mi SSE 13.8 mph 19.6 mph N/A   Mostly Cloudy
2:35 AM 71.6 °F - 66.2 °F 83% 29.88 in 7.0 mi SSE 15.0 mph 23.0 mph N/A   Overcast
2:55 AM 71.6 °F - 66.2 °F 83% 29.87 in 7.0 mi SSE 13.8 mph 21.9 mph N/A   Overcast
3:15 AM 71.6 °F - 66.2 °F 83% 29.87 in 5.0 mi SSE 15.0 mph 18.4 mph N/A   Overcast
3:35 AM 69.8 °F - 66.2 °F 88% 29.87 in 5.0 mi SSE 11.5 mph 17.3 mph N/A   Overcast
3:55 AM 69.8 °F - 68.0 °F 94% 29.86 in 5.0 mi SSE 12.7 mph 17.3 mph N/A   Overcast
4:15 AM 69.8 °F - 68.0 °F 94% 29.85 in 7.0 mi SSE 10.4 mph 18.4 mph N/A   Overcast
4:35 AM 71.6 °F - 68.0 °F 88% 29.86 in 7.0 mi SSE 12.7 mph 20.7 mph N/A   Overcast
4:55 AM 71.6 °F - 68.0 °F 88% 29.85 in 7.0 mi SSE 12.7 mph 19.6 mph N/A   Mostly Cloudy
5:15 AM 71.6 °F - 68.0 °F 88% 29.86 in 7.0 mi South 12.7 mph 17.3 mph N/A   Scattered Clouds
5:35 AM 71.6 °F - 68.0 °F 88% 29.85 in 7.0 mi SSE 13.8 mph 19.6 mph N/A   Scattered Clouds
5:55 AM 71.6 °F - 68.0 °F 88% 29.85 in 7.0 mi SSE 13.8 mph 20.7 mph N/A   Scattered Clouds
6:15 AM 71.6 °F - 68.0 °F 88% 29.85 in 7.0 mi SSE 16.1 mph 21.9 mph N/A   Scattered Clouds
6:35 AM 71.6 °F - 66.2 °F 83% 29.85 in 7.0 mi SSE 10.4 mph 19.6 mph N/A   Scattered Clouds
6:55 AM 71.6 °F - 66.2 °F 83% 29.86 in 5.0 mi SSE 11.5 mph 21.9 mph N/A   Scattered Clouds
7:15 AM 71.6 °F - 66.2 °F 83% 29.85 in 5.0 mi SSE 13.8 mph 25.3 mph N/A   Scattered Clouds
7:35 AM 71.6 °F - 64.4 °F 78% 29.85 in 5.0 mi SSE 13.8 mph 26.5 mph N/A   Scattered Clouds
7:55 AM 71.6 °F - 64.4 °F 78% 29.86 in 5.0 mi SSE 16.1 mph 23.0 mph N/A   Scattered Clouds
8:15 AM 71.6 °F - 64.4 °F 78% 29.86 in 5.0 mi SSE 13.8 mph 24.2 mph N/A   Scattered Clouds
8:35 AM 71.6 °F - 64.4 °F 78% 29.86 in 5.0 mi SSE 17.3 mph 23.0 mph N/A   Scattered Clouds
8:55 AM 71.6 °F - 64.4 °F 78% 29.86 in 5.0 mi SSE 19.6 mph 27.6 mph N/A   Scattered Clouds
9:15 AM 71.6 °F - 64.4 °F 78% 29.86 in 5.0 mi SSE 17.3 mph 25.3 mph N/A   Scattered Clouds
9:35 AM 71.6 °F - 64.4 °F 78% 29.85 in 7.0 mi SSE 19.6 mph 25.3 mph N/A   Scattered Clouds
9:55 AM 71.6 °F - 64.4 °F 78% 29.85 in 7.0 mi SSE 17.3 mph 24.2 mph N/A   Scattered Clouds
10:15 AM 71.6 °F - 64.4 °F 78% 29.84 in 7.0 mi SSE 17.3 mph 24.2 mph N/A   Scattered Clouds
10:35 AM 71.6 °F - 62.6 °F 73% 29.84 in 7.0 mi South 16.1 mph 21.9 mph N/A   Scattered Clouds
10:55 AM 73.4 °F - 62.6 °F 69% 29.83 in 7.0 mi South 13.8 mph 23.0 mph N/A   Scattered Clouds
11:15 AM 73.4 °F - 64.4 °F 73% 29.82 in 7.0 mi SSE 18.4 mph 24.2 mph N/A   Clear
11:35 AM 73.4 °F - 64.4 °F 73% 29.82 in 7.0 mi South 17.3 mph 27.6 mph N/A   Clear
11:55 AM 77.0 °F - 64.4 °F 65% 29.81 in 10.0 mi South 15.0 mph 29.9 mph N/A   Clear
12:15 PM 78.8 °F - 64.4 °F 61% 29.80 in 10.0 mi South 17.3 mph 28.8 mph N/A   Scattered Clouds
12:35 PM 78.8 °F - 62.6 °F 57% 29.80 in 7.0 mi SSE 21.9 mph 29.9 mph N/A   Scattered Clouds
12:55 PM 80.6 °F 81.8 °F 62.6 °F 54% 29.80 in 7.0 mi SSE 21.9 mph 32.2 mph N/A   Clear
1:15 PM 80.6 °F 82.3 °F 64.4 °F 58% 29.78 in 10.0 mi SSE 16.1 mph 28.8 mph N/A   Scattered Clouds
1:35 PM 80.6 °F 81.8 °F 62.6 °F 54% 29.77 in 10.0 mi South 19.6 mph 31.1 mph N/A   Clear
1:55 PM 80.6 °F 81.8 °F 62.6 °F 54% 29.76 in 10.0 mi South 19.6 mph 29.9 mph N/A   Scattered Clouds
2:15 PM 82.4 °F 83.4 °F 62.6 °F 51% 29.76 in 10.0 mi SSE 19.6 mph 26.5 mph N/A   Scattered Clouds
2:35 PM 82.4 °F 83.4 °F 62.6 °F 51% 29.75 in 10.0 mi South 20.7 mph 28.8 mph N/A   Scattered Clouds
2:55 PM 80.6 °F 81.8 °F 62.6 °F 54% 29.75 in 10.0 mi SSE 19.6 mph 26.5 mph N/A   Scattered Clouds
3:15 PM 80.6 °F 81.8 °F 62.6 °F 54% 29.74 in 10.0 mi SSE 16.1 mph 25.3 mph N/A   Scattered Clouds
3:55 PM 80.6 °F 81.8 °F 62.6 °F 54% 29.73 in 10.0 mi SSE 15.0 mph 26.5 mph N/A   Scattered Clouds
4:15 PM 80.6 °F 81.8 °F 62.6 °F 54% 29.72 in 10.0 mi SSE 20.7 mph 26.5 mph N/A   Scattered Clouds
4:35 PM 80.6 °F 81.8 °F 62.6 °F 54% 29.71 in 10.0 mi SSE 15.0 mph 24.2 mph N/A   Scattered Clouds
4:55 PM 80.6 °F 81.8 °F 62.6 °F 54% 29.70 in 10.0 mi SSE 19.6 mph 24.2 mph N/A   Scattered Clouds
5:15 PM 80.6 °F 81.8 °F 62.6 °F 54% 29.70 in 7.0 mi SSE 21.9 mph 29.9 mph N/A   Scattered Clouds
5:35 PM 80.6 °F 81.8 °F 62.6 °F 54% 29.69 in 10.0 mi SSE 20.7 mph 26.5 mph N/A   Scattered Clouds
5:55 PM 80.6 °F 81.8 °F 62.6 °F 54% 29.69 in 10.0 mi SSE 16.1 mph 25.3 mph N/A   Clear
6:15 PM 80.6 °F 81.8 °F 62.6 °F 54% 29.68 in 10.0 mi SSE 20.7 mph 32.2 mph N/A   Clear
6:35 PM 80.6 °F 81.8 °F 62.6 °F 54% 29.67 in 10.0 mi SSE 21.9 mph 32.2 mph N/A   Clear
6:55 PM 78.8 °F - 64.4 °F 61% 29.66 in 10.0 mi SSE 18.4 mph 29.9 mph N/A   Clear
7:15 PM 78.8 °F - 64.4 °F 61% 29.66 in 10.0 mi SSE 18.4 mph 27.6 mph N/A   Scattered Clouds
7:35 PM 77.0 °F - 64.4 °F 65% 29.65 in 10.0 mi SSE 19.6 mph 26.5 mph N/A   Clear
7:55 PM 77.0 °F - 64.4 °F 65% 29.65 in 7.0 mi SSE 18.4 mph 35.7 mph N/A   Clear
8:15 PM 75.2 °F - 64.4 °F 69% 29.64 in 10.0 mi SSE 18.4 mph 29.9 mph N/A   Clear
8:35 PM 73.4 °F - 64.4 °F 73% 29.64 in 10.0 mi SSE 20.7 mph 28.8 mph N/A   Clear
8:55 PM 73.4 °F - 64.4 °F 73% 29.65 in 10.0 mi SSE 18.4 mph 26.5 mph N/A   Clear
9:15 PM 73.4 °F - 64.4 °F 73% 29.66 in 10.0 mi SSE 16.1 mph 24.2 mph N/A   Clear
9:35 PM 73.4 °F - 64.4 °F 73% 29.67 in 10.0 mi SSE 18.4 mph 25.3 mph N/A   Scattered Clouds
9:55 PM 73.4 °F - 64.4 °F 73% 29.67 in 10.0 mi SSE 18.4 mph 25.3 mph N/A   Clear
10:15 PM 73.4 °F - 64.4 °F 73% 29.67 in 10.0 mi South 16.1 mph 25.3 mph N/A   Scattered Clouds
10:35 PM 73.4 °F - 66.2 °F 78% 29.67 in 7.0 mi SSE 18.4 mph 26.5 mph N/A   Scattered Clouds
10:55 PM 73.4 °F - 66.2 °F 78% 29.67 in 10.0 mi South 19.6 mph 29.9 mph N/A   Clear
11:15 PM 73.4 °F - 66.2 °F 78% 29.66 in 7.0 mi South 16.1 mph 26.5 mph N/A   Scattered Clouds
11:35 PM 73.4 °F - 66.2 °F 78% 29.66 in 7.0 mi South 18.4 mph 26.5 mph N/A   Scattered Clouds
11:55 PM 73.4 °F - 66.2 °F 78% 29.66 in 7.0 mi South 16.1 mph 25.3 mph N/A   Scattered Clouds